Regional Weather Roundup
Issued by NWS Northern Indiana

Home | Current Version | Previous Version | Graphics & Text | Print | Product List | Glossary On
Versions: 1 2 3 4 5 6 7 8 9 10 11 12 13 14 15 16 17 18 19 20 21 22 23 24 25 26 27 28 29 30 31 32 33 34 35 36 37 38 39 40 41 42 43 44 45 46 47 48 49 50
000
ASUS43 KIWX 212200
RWRIWX

KIWX WEATHER ROUNDUP
NATIONAL WEATHER SERVICE NORTHERN INDIANA
600 PM EDT TUE OCT 21 2014

NOTE: "FAIR" INDICATES FEW OR NO CLOUDS BELOW 12,000 FEET WITH NO
SIGNIFICANT WEATHER AND/OR OBSTRUCTIONS TO VISIBILITY.

* THESE STATIONS ARE NOT UNDER NWS QUALITY CONTROL. THEY ALSO MAY NOT
  REPORT WEATHER SUCH AS PRECIPITATION OR FOG.

INZ001>027-212300-
NORTHERN INDIANA

CITY           SKY/WX    TMP DP  RH WIND       PRES   REMARKS
SOUTH BEND     CLOUDY    50  37  61 N9        30.17S
ELKHART*       CLOUDY    50  37  62 N7        30.16R
GOSHEN         CLOUDY    49  39  68 N12       30.15R
ANGOLA*        CLOUDY    46  28  49 NE7       30.14R
FORT WAYNE     CLOUDY    50  40  68 N12       30.14R
PERU/GRISSOM   CLOUDY    53  45  73 N13       30.13R

$$
INZ028>050-212300-
CENTRAL INDIANA

CITY           SKY/WX    TMP DP  RH WIND       PRES   REMARKS
LAFAYETTE      MOCLDY    53  43  68 N14       30.15R
KOKOMO*        CLOUDY    54  39  58 N13       30.13R
MUNCIE*        CLOUDY    53  41  63 N13       30.12R
INDIANAPOLIS   MOCLDY    54  42  64 N12       30.11R

$$
MIZ043>046-050>051-056>058-064>065-071>073-077>080-212300-
SOUTHWEST LOWER MICHIGAN

CITY           SKY/WX    TMP DP  RH WIND       PRES   REMARKS
BATTLE CREEK   CLOUDY    48  36  63 N8        30.16R
BENTON HARBOR  CLOUDY    49  38  65 MISG      30.17R
COLDWATER*     CLOUDY    48  39  70 N9        30.15R
HILLSDALE*     CLOUDY    47  39  73 NE9       30.14R
HOLLAND        PTCLDY    51  37  58 N5        30.18R
GRAND RAPIDS   PTCLDY    49  37  63 NE5       30.17R
KALAMAZOO      CLOUDY    49  38  65 N9        30.17R
STURGIS*       CLOUDY    46  37  71 N6        30.15R
THREE RIVERS*  CLOUDY    49  39  69 N5        30.16R

$$
OHZ001>008-015>018-024>025-212300-
NORTHWEST OHIO

CITY           SKY/WX    TMP DP  RH WIND       PRES   REMARKS
DEFIANCE       CLOUDY    49  37  63 N10       30.14R
FINDLAY        CLOUDY    47  38  71 N10       30.10R
TOLEDO EXPRESS CLOUDY    46  37  71 N13       30.13R
TOLEDO METCALF CLOUDY    47  37  68 NW12      30.12R
LIMA           CLOUDY    48  40  73 N9        30.11R

$$
AND FOR LAKE MICHIGAN COASTAL AND OPEN LAKE BUOY OBSERVATIONS

STATION/POSITION TEMP    WIND        PRES    VSBY  WAVE
                 AIR SEA DIR/SP/G                  HT/PER
                 (F)     (DEG/KT/KT) (MB)    (MI)  (FT/S)
CALUMET HARBOR    51     350/ 11/ 16 1021.0R
MICHIGAN CITY     50     350/ 18/ 21   N/A
SAINT JOSEPH      50                 1022.4R
SOUTH LAKE BUOY   49 54  350/ 17/ 21 1022.1R         5/ 7

$$
&&



USA.gov is the U.S. government's official web portal to all federal, state and local government web resources and services.